Location: Newark
(25.3833°N, 97.4000°E)
Time: 09:38:23
(UTC+00:00)

First-Move - Pass Details

Date: 27 February 2020
Orbit: 576 x 669 km, 97.6° (Epoch: 07 April)

Event Time Altitude Azimuth Distance (km) Brightness Sun altitude
Rises 22:31:59 0° 32° (NNE) 2,991 ? -19.6°
Reaches altitude 10° 22:34:47 10° 49° (NE) 2,063 ? -18.9°
Maximum altitude 22:38:02 20° 96° (E) 1,510 ? -18.2°
Drops below altitude 10° 22:41:13 10° 142° (SE) 2,021 ? -17.5°
Sets 22:43:54 0° 160° (SSE) 2,907 ? -16.9°
